Location: Ostrava
(49.8330°N, 18.2830°E)
Time: 04:05:24
(UTC+02:00)

NOAA 19 - Visible Passes

Search period start: 29 July 2016 00:00
Search period end: 08 August 2016 00:00
Orbit: 841 x 863 km, 99.0° (Epoch: 28 July)

Date Brightness Start Highest point End Pass type
(mag) Time Alt. Az. Time Alt. Az. Time Alt. Az.
29 Jul 6.3 03:21:45 10° NNE 03:26:53 40° E 03:32:00 10° SSE visible
30 Jul 6.6 03:10:30 10° NNE 03:15:24 32° E 03:20:17 10° SSE visible
31 Jul 6.9 02:59:19 10° NE 03:03:55 27° E 03:08:28 10° SSE visible
01 Aug 7.2 02:48:12 10° NE 02:52:23 22° E 02:56:32 10° SE visible
01 Aug 5.3 04:28:07 10° N 04:33:34 66° WNW 04:38:59 10° SSW visible
02 Aug 7.4 02:37:12 10° NE 02:40:50 18° E 02:44:28 10° SE visible
02 Aug 5.2 04:16:42 10° NNE 04:22:11 80° WNW 04:27:40 10° SSW visible
03 Aug 7.6 02:26:22 10° NE 02:29:16 14° E 02:32:10 10° ESE visible
03 Aug 5.3 04:05:17 10° NNE 04:10:48 85° ESE 04:16:18 10° SSW visible
04 Aug 7.7 02:15:59 10° ENE 02:17:41 11° E 02:19:23 10° ESE visible
04 Aug 5.5 03:53:54 10° NNE 03:59:23 70° ESE 04:04:51 10° S visible
05 Aug 5.7 03:42:33 10° NNE 03:47:57 57° E 03:53:21 10° S visible
06 Aug 6.1 03:31:14 10° NNE 03:36:31 46° E 03:41:47 10° S visible
07 Aug 6.4 03:19:57 10° NNE 03:25:03 38° E 03:30:08 10° SSE visible
